Showing default

POLYTECH UNIVERSE-4, 61747

Orbit data source: Space-Track

POLYTECH UNIVERSE-4, 61747 is a payload satellite owned by Polytech (CIS) in SSO that was launched on Mon, 04 Nov 2024 UTC via a SOYUZ-2-1B launch vehicle from the Vostochny Cosmodrome (VOSTO). Payload-class satellites include a variety of spacecraft equipped with specific instruments for various scientific and technological missions. These include communications satellites like Starlink; space stations such as the ISS; scientific satellites like the Hubble; Earth observation satellites from companies like Planet Labs, Umbra, and HawkEye 360; GPS; miniature CubeSats for education and research; and military/defense satellites.

Loading next visibility...
Identifier
61747, 2024-199N
Orbit
SSO
Country
Flag of CISCIS
Related business
Manufacturer
STTs
Mission
Operational Amateur Science
Bus & Motor
CUBESAT 3U, Unknown motor
Mass
5.07 kg wet, 5.07 kg dry
Launch date (UTC)
2024-11-04 (2 years ago)
Launch vehicle
SOYUZ-2-1B
Launch site
Vostochny Cosmodrome (VOSTO)
Object type
Payload
Rocket body
Debris
Shape & HBR
Box, 0.1 m
Radar Cross Section
0.035 m², Small (<0.1 m²)

Expand to show TLE details & history
Last TLE update: 13 hours ago

TLE from 13 hours ago
0 POLYTECH UNIVERSE-4
1 61747U 24199N   26145.57851756  .00017744  00000-0  38160-3 0  9996
2 61747  97.3037  18.5881 0009147  14.8150 345.3365 15.44667362133872
Epoch: 2026-05-25T13:53Z
TLE epoch observation values (Epoch: 2026-05-25T13:53:03.917Z)
Latitude
-0°
Longitude
-72.84251°
Altitude
429.455 km
Speed
7.657 km/s
True Right ascension
01h 14m 21s
True Declination
0° 00' 00"
Sunlit
Object was in daylight at epoch
Visualization orbit readout
Latitude
Unknown
Longitude
Unknown
Altitude
Unknown
Speed
Unknown
Apparent Right ascension
Unknown
Apparent Declination
Unknown
Sunlit
N/A
Visualization observer readout
Local Sidereal Time
12:22:15
Azimuth
Unknown
Elevation
Unknown
Doppler factor
Unknown
Orbital elements
Apogee altitude
435.511 km
Perigee altitude
423.058 km
Semi-major axis
6,807.421 km
Eccentricity
0.00091
Inclination
97.3037°
RAAN
18.5881°
Arg. of periapsis
14.815°
True anomaly
345.30994°
Mean anomaly
345.3365°
Eccentric anomaly
345.32322°
Mean motion
3.86429 °/min
Orbital period
93.16 mins
BSTAR
0.0003816
Loading maneuver chart data...
Computing Atmospheric mass density...
Loading historical data...
Loading historical data...
Loading historical data...
Loading historical data...
Loading historical data...
Loading historical data...
Loading historical data...

Documentation

Showing up to 5 results
|